GW7291 Weather Reports


time (UTC)temp
C
wind
direction
speed
KPH
gust
KPH
rain 1hr
cm
rain 24hr
cm
rain mn
cm
humidity
%
barometer
mb
20260506024744 9 29 14.5 16.1 0.00 0.00 0.00 83 1012.9
20260506024241 9 23 11.3 20.9 0.00 0.00 0.00 83 1013.1
20260506023737 9 19 4.8 6.4 0.00 0.00 0.00 85 1013.0
20260506023234 8 323 6.4 12.9 0.00 0.00 0.00 86 1012.9
20260506022731 8 345 8.0 14.5 0.00 0.00 0.00 86 1012.7
20260506022229 8 5 4.8 16.1 0.00 0.00 0.00 86 1012.8
20260506021726 8 48 8.0 11.3 0.00 0.00 0.00 86 1012.6
20260506021223 8 57 4.8 14.5 0.00 0.00 0.00 86 1012.4
20260506020720 8 24 6.4 16.1 0.00 0.00 0.00 86 1012.5
20260506020218 8 26 8.0 12.9 0.00 0.00 0.00 87 1012.4
20260506015715 8 351 6.4 12.9 0.00 0.00 0.00 87 1012.6
20260506015213 8 331 6.4 11.3 0.00 0.00 0.00 87 1012.4
20260506014710 8 38 6.4 16.1 0.00 0.00 0.00 87 1012.2
20260506014205 8 344 6.4 14.5 0.00 0.00 0.00 87 1012.2
20260506013703 8 38 4.8 9.7 0.00 0.00 0.00 87 1012.2
20260506013200 8 2 6.4 14.5 0.00 0.00 0.00 87 1012.3
20260506012656 8 342 4.8 11.3 0.00 0.00 0.00 87 1012.1
20260506012153 9 31 8.0 11.3 0.00 0.00 0.00 86 1011.9
20260506011651 9 350 9.7 12.9 0.00 0.00 0.00 86 1012.1
20260506011147 9 348 6.4 14.5 0.00 0.00 0.00 85 1011.7
20260506010646 9 35 9.7 17.7 0.00 0.00 0.00 84 1011.7
20260506010142 9 54 9.7 17.7 0.00 0.00 0.00 84 1011.6
20260506005639 9 348 8.0 14.5 0.00 0.00 0.00 84 1011.1
20260506005136 9 35 6.4 11.3 0.00 0.00 0.00 84 1010.9
20260506004632 9 318 3.2 17.7 0.00 0.00 0.00 84 1010.5
20260506004130 9 19 6.4 11.3 0.00 0.00 0.00 84 1010.8
20260506003626 9 25 9.7 20.9 0.00 0.00 0.00 84 1010.8
20260506003122 9 331 9.7 14.5 0.00 0.00 0.00 84 1010.7
20260506002618 9 52 4.8 17.7 0.00 0.00 0.00 84 1010.8
20260506002114 10 41 11.3 16.1 0.00 0.00 0.00 83 1010.9
20260506001610 10 336 6.4 14.5 0.00 0.00 0.00 83 1010.4
20260506001108 10 27 11.3 14.5 0.00 0.00 0.00 83 1010.7
20260506000605 10 19 8.0 17.7 0.00 0.00 0.00 82 1010.6
20260505235600 10 12 9.7 17.7 0.00 0.00 0.00 82 1010.4
20260505235057 10 20 8.0 14.5 0.00 0.00 0.00 81 1010.7
20260505234554 10 48 9.7 20.9 0.00 0.00 0.00 81 1010.8
20260505234050 10 25 6.4 11.3 0.00 0.00 0.00 81 1010.7
20260505233548 10 46 8.0 17.7 0.00 0.00 0.00 81 1010.8
20260505233046 10 348 11.3 12.9 0.00 0.00 0.00 80 1010.9
20260505232543 10 60 6.4 17.7 0.00 0.00 0.00 79 1010.7
20260505232041 10 336 16.1 25.7 0.00 0.00 0.00 79 1010.8
20260505231537 10 34 8.0 14.5 0.00 0.00 0.00 79 1010.4
20260505231036 10 26 3.2 12.9 0.00 0.00 0.00 79 1010.2
20260505230533 10 30 6.4 14.5 0.00 0.00 0.00 78 1010.3
20260505230029 10 45 4.8 9.7 0.00 0.00 0.00 78 1010.5
20260505225526 10 1 4.8 16.1 0.00 0.00 0.00 78 1010.4
20260505225022 10 0 8.0 16.1 0.00 0.00 0.00 78 1010.1
20260505224519 10 347 12.9 22.5 0.00 0.00 0.00 77 1010.1
20260505224016 10 5 12.9 20.9 0.00 0.00 0.00 77 1009.9
20260505223514 10 27 9.7 24.1 0.00 0.00 0.00 77 1010.2
20260505223010 11 346 17.7 22.5 0.00 0.00 0.00 77 1010.1
20260505222506 11 1 11.3 20.9 0.00 0.00 0.00 77 1009.8
20260505222002 11 345 9.7 20.9 0.00 0.00 0.00 77 1009.6
20260505221500 11 18 12.9 24.1 0.00 0.00 0.00 77 1009.6
20260505220956 11 25 8.0 17.7 0.00 0.00 0.00 77 1010.1
20260505220453 11 50 4.8 12.9 0.00 0.00 0.00 78 1009.9
20260505215951 11 57 6.4 16.1 0.00 0.00 0.00 77 1010.0
20260505215449 11 21 11.3 17.7 0.00 0.00 0.00 77 1009.6
20260505214946 11 39 8.0 14.5 0.00 0.00 0.00 78 1008.8
20260505214444 11 340 8.0 20.9 0.00 0.00 0.00 77 1009.2
20260505213941 11 30 12.9 22.5 0.00 0.00 0.00 77 1009.3
20260505213439 11 29 14.5 25.7 0.00 0.00 0.00 77 1009.1
20260505212935 11 26 14.5 17.7 0.00 0.00 0.00 77 1009.4
20260505212432 11 58 16.1 22.5 0.00 0.00 0.00 77 1009.5
20260505211928 11 44 14.5 29.0 0.00 0.00 0.00 77 1009.0
20260505211426 11 345 9.7 25.7 0.00 0.00 0.00 76 1008.9
20260505210922 11 30 6.4 27.4 0.00 0.00 0.00 77 1008.8
20260505210420 11 34 9.7 16.1 0.00 0.00 0.00 78 1009.1
20260505205916 11 38 8.0 14.5 0.00 0.00 0.00 78 1009.7
20260505205415 11 2 8.0 17.7 0.00 0.00 0.00 77 1009.7
20260505204911 11 18 16.1 22.5 0.00 0.00 0.00 77 1009.7
20260505204409 11 26 9.7 25.7 0.00 0.00 0.00 77 1009.5
20260505203906 11 9 11.3 16.1 0.00 0.00 0.00 77 1009.3
20260505203402 11 329 12.9 24.1 0.00 0.00 0.00 77 1009.2
20260505202859 11 0 12.9 20.9 0.00 0.00 0.00 77 1009.1
20260505202355 11 30 11.3 22.5 0.00 0.00 0.00 78 1009.1
20260505201851 11 54 4.8 20.9 0.00 0.00 0.00 78 1008.8
20260505201349 11 354 6.4 16.1 0.00 0.00 0.00 78 1008.9
20260505200847 11 46 17.7 24.1 0.00 0.00 0.00 78 1008.6
20260505200344 12 340 14.5 30.6 0.00 0.00 0.00 78 1008.8
20260505195839 11 343 12.9 24.1 0.00 0.00 0.00 78 1008.9
20260505195337 12 347 9.7 17.7 0.00 0.00 0.00 78 1008.5
20260505194834 12 39 14.5 24.1 0.00 0.00 0.00 78 1009.0
20260505194331 12 352 14.5 20.9 0.00 0.00 0.00 78 1008.8
20260505193831 11 5 16.1 22.5 0.00 0.00 0.00 79 1009.0
20260505193330 11 36 16.1 25.7 0.00 0.00 0.00 79 1008.9
20260505192827 11 18 20.9 27.4 0.00 0.00 0.00 82 1008.9
20260505192325 11 27 20.9 25.7 0.00 0.00 0.00 83 1008.8
20260505191823 11 0 9.7 17.7 0.00 0.00 0.00 84 1008.5
20260505191321 11 327 6.4 12.9 0.00 0.00 0.00 84 1008.5
20260505190817 11 44 11.3 20.9 0.00 0.00 0.00 84 1008.9
20260505190313 11 348 4.8 16.1 0.00 0.00 0.00 84 1008.6
20260505185809 11 40 9.7 17.7 0.00 0.00 0.00 84 1008.4
20260505185305 11 12 16.1 25.7 0.00 0.00 0.00 84 1008.6
20260505184801 12 347 12.9 20.9 0.00 0.00 0.00 84 1008.4
20260505184259 12 322 20.9 33.8 0.00 0.00 0.00 84 1008.4
20260505183755 12 339 14.5 24.1 0.00 0.00 0.00 84 1008.3
20260505183253 12 12 17.7 22.5 0.00 0.00 0.00 84 1008.1
20260505182749 12 28 17.7 25.7 0.00 0.00 0.00 84 1008.2
20260505182246 12 62 9.7 16.1 0.00 0.00 0.00 84 1008.2
20260505181742 12 49 8.0 20.9 0.00 0.00 0.00 84 1008.0
20260505181240 12 47 6.4 22.5 0.00 0.00 0.00 83 1007.9
20260505180736 12 316 11.3 25.7 0.00 0.00 0.00 83 1007.8
20260505180233 12 56 20.9 27.4 0.00 0.00 0.00 83 1007.7
20260505175729 12 348 11.3 24.1 0.00 0.00 0.00 83 1007.5
20260505175226 12 22 9.7 27.4 0.00 0.00 0.00 83 1007.9
20260505174723 12 45 19.3 30.6 0.00 0.00 0.00 83 1007.4
20260505174220 12 339 8.0 27.4 0.00 0.00 0.00 83 1007.3
20260505173716 12 66 12.9 17.7 0.00 0.00 0.00 83 1007.1
20260505173213 12 8 8.0 24.1 0.00 0.00 0.00 84 1007.4
20260505172710 12 19 12.9 17.7 0.00 0.00 0.00 84 1007.2
20260505172207 12 21 19.3 24.1 0.00 0.00 0.00 85 1007.3
20260505171706 12 14 14.5 22.5 0.00 0.00 0.00 85 1007.2
20260505171204 12 47 8.0 22.5 0.00 0.00 0.00 85 1007.3
20260505170700 12 358 17.7 22.5 0.00 0.00 0.00 85 1007.3
20260505170157 12 18 9.7 22.5 0.00 0.00 0.00 86 1007.2
20260505165658 12 22 8.0 17.7 0.00 0.00 0.00 85 1007.0
20260505165154 12 318 11.3 17.7 0.00 0.00 0.00 85 1006.9
20260505164649 12 24 12.9 24.1 0.00 0.00 0.00 86 1006.9
20260505164147 13 3 11.3 17.7 0.00 0.00 0.00 86 1006.4
20260505163645 12 25 9.7 14.5 0.00 0.00 0.00 86 1006.3
20260505163143 12 0 9.7 27.4 0.00 0.00 0.00 87 1006.3
20260505162640 12 333 14.5 20.9 0.00 0.00 0.00 87 1006.3
20260505162138 12 69 9.7 22.5 0.00 0.00 0.00 88 1006.0
20260505161634 13 18 19.3 24.1 0.00 0.00 0.00 88 1005.7
20260505161132 12 29 16.1 24.1 0.00 0.00 0.00 88 1005.3
20260505160629 13 5 12.9 22.5 0.00 0.00 0.00 88 1005.3
20260505160127 13 337 14.5 22.5 0.00 0.00 0.00 88 1005.6
20260505153107 15 25 6.4 24.1 0.00 0.00 0.00 88 1004.6
20260505152603 15 356 14.5 25.7 0.00 0.00 0.00 88 1004.5
20260505152058 15 33 11.3 17.7 0.00 0.00 0.00 88 1004.1
20260505151554 15 354 16.1 20.9 0.00 0.00 0.00 88 1004.2
20260505151052 15 19 12.9 29.0 0.00 0.00 0.00 88 1004.2
20260505150548 16 15 8.0 24.1 0.00 0.00 0.00 88 1003.9
20260505140513 19 41 4.8 6.4 0.00 0.00 0.00 89 1002.4
20260505124926 17 56 0.0 9.7 0.00 0.00 0.00 93 1001.8
20260505124423 17 32 6.4 14.5 0.00 0.00 0.00 93 1001.9
20260505123919 17 62 4.8 9.7 0.00 0.00 0.00 93 1001.9
20260505123416 17 39 3.2 11.3 0.00 0.00 0.00 93 1001.9
20260505122911 17 123 4.8 12.9 0.00 0.00 0.00 93 1001.7
20260505122409 17 48 4.8 6.4 0.00 0.00 0.00 93 1001.8
20260505121906 17 116 3.2 6.4 0.00 0.00 0.00 93 1001.5
20260505121403 17 36 8.0 16.1 0.00 0.00 0.00 93 1001.5
20260505120859 17 40 6.4 12.9 0.00 0.00 0.00 92 1001.7
20260505120355 17 46 3.2 6.4 0.00 0.00 0.00 92 1001.5
20260505115854 17 37 1.6 9.7 0.00 0.00 0.00 92 1001.4
20260505115351 18 40 3.2 14.5 0.00 0.00 0.00 91 1001.6
20260505114849 18 85 6.4 9.7 0.00 0.00 0.00 91 1001.2
20260505114345 18 36 6.4 11.3 0.00 0.00 0.00 90 1001.2
20260505113842 18 42 3.2 9.7 0.00 0.00 0.00 89 1001.0
20260505113338 18 8 3.2 4.8 0.00 0.00 0.00 88 1000.8
20260505112834 18 64 1.6 4.8 0.00 0.00 0.00 88 1000.6
20260505112332 19 16 6.4 6.4 0.00 0.00 0.00 86 1000.7
20260505111827 19 30 3.2 6.4 0.00 0.00 0.00 85 1000.6
20260505111323 20 66 0.0 0.0 0.00 0.00 0.00 85 1000.5
20260505110819 20 41 1.6 1.6 0.00 0.00 0.00 84 1000.7
20260505110317 20 32 0.0 1.6 0.00 0.00 0.00 82 1000.8
20260505101751 21 162 0.0 0.0 0.00 0.00 0.00 80 999.5
20260505101247 21 48 1.6 4.8 0.00 0.00 0.00 78 999.5
20260505100743 21 200 0.0 1.6 0.00 0.00 0.00 78 999.4
20260505100240 21 214 1.6 3.2 0.00 0.00 0.00 77 999.2
20260505095735 21 124 1.6 4.8 0.00 0.00 0.00 77 998.9
20260505095234 22 164 4.8 11.3 0.00 0.00 0.00 77 999.1
20260505094729 22 156 6.4 14.5 0.00 0.00 0.00 77 998.8
20260505094226 22 180 6.4 11.3 0.00 0.00 0.00 77 998.8
20260505093722 22 204 9.7 14.5 0.00 0.00 0.00 77 998.6
20260505093220 22 157 8.0 12.9 0.00 0.00 0.00 77 998.5
20260505092716 22 200 9.7 14.5 0.00 0.00 0.00 77 998.9
20260505092215 22 181 8.0 17.7 0.00 0.00 0.00 77 998.6
20260505091712 22 176 9.7 12.9 0.00 0.00 0.00 77 998.6
20260505091210 21 162 8.0 12.9 0.00 0.00 0.00 77 999.0
20260505090707 22 156 8.0 11.3 0.00 0.00 0.00 77 998.8
20260505090205 22 189 8.0 12.9 0.00 0.00 0.00 77 998.7
20260505085702 22 178 9.7 12.9 0.00 0.00 0.00 77 998.7
20260505085200 22 176 8.0 14.5 0.00 0.00 0.00 77 998.8
20260505084657 21 176 9.7 16.1 0.00 0.00 0.00 77 998.9
20260505084156 21 197 11.3 16.1 0.00 0.00 0.00 78 999.1
20260505083653 21 148 8.0 12.9 0.00 0.00 0.00 78 998.8
20260505083149 21 196 9.7 16.1 0.00 0.00 0.00 78 999.1
20260505082645 21 176 11.3 16.1 0.00 0.00 0.00 77 998.9
20260505082143 22 173 9.7 17.7 0.00 0.00 0.00 77 999.1
20260505081638 21 183 11.3 16.1 0.00 0.00 0.00 78 999.3
20260505081136 21 193 8.0 12.9 0.00 0.00 0.00 78 999.2
20260505080633 21 191 9.7 17.7 0.00 0.00 0.00 78 999.2
20260505080129 21 138 12.9 17.7 0.00 0.00 0.00 78 999.3
20260505075625 21 217 9.7 14.5 0.00 0.00 0.00 78 999.5
20260505075122 21 173 12.9 16.1 0.00 0.00 0.00 78 999.4
20260505074619 21 180 9.7 14.5 0.00 0.00 0.00 78 999.2
20260505074116 21 128 9.7 14.5 0.00 0.00 0.00 78 999.6
20260505073614 21 160 9.7 16.1 0.00 0.00 0.00 78 999.7
20260505073112 21 170 9.7 14.5 0.00 0.00 0.00 78 999.6
20260505072607 21 149 9.7 16.1 0.00 0.00 0.00 78 999.7
20260505072104 21 147 9.7 16.1 0.00 0.00 0.00 78 999.8
20260505071559 21 152 8.0 16.1 0.00 0.00 0.00 77 999.9
20260505071057 21 172 11.3 16.1 0.00 0.00 0.00 78 1000.1
20260505070554 21 200 9.7 14.5 0.00 0.00 0.00 78 1000.1
20260505070050 21 122 8.0 14.5 0.00 0.00 0.00 77 1000.2
20260505065546 21 190 9.7 14.5 0.00 0.00 0.00 77 1000.1
20260505065043 21 162 9.7 14.5 0.00 0.00 0.00 78 1000.5
20260505064540 21 135 11.3 16.1 0.00 0.00 0.00 77 1000.5
20260505064038 21 197 12.9 17.7 0.00 0.00 0.00 77 1000.4
20260505063535 21 180 12.9 16.1 0.00 0.00 0.00 77 1000.6
20260505063031 21 194 9.7 17.7 0.00 0.00 0.00 77 1000.6
20260505062528 21 185 8.0 14.5 0.00 0.00 0.00 78 1000.6
20260505062025 21 160 6.4 17.7 0.00 0.00 0.00 77 1000.8
20260505061523 21 175 8.0 14.5 0.00 0.00 0.00 77 1000.6
20260505061020 21 178 9.7 14.5 0.00 0.00 0.00 78 1000.8
20260505060518 21 170 11.3 14.5 0.00 0.00 0.00 78 1000.8
20260505060014 21 123 11.3 17.7 0.00 0.00 0.00 77 1000.7
20260505055509 21 178 8.0 12.9 0.00 0.00 0.00 77 1001.1
20260505055006 21 182 11.3 14.5 0.00 0.00 0.00 77 1000.9
20260505054504 22 174 8.0 16.1 0.00 0.00 0.00 76 1000.9
20260505054002 21 196 12.9 17.7 0.00 0.00 0.00 76 1000.8
20260505053459 22 181 9.7 14.5 0.00 0.00 0.00 76 1001.0
20260505052955 22 174 11.3 14.5 0.00 0.00 0.00 76 1000.8
20260505052453 22 164 14.5 17.7 0.00 0.00 0.00 76 1001.2
20260505051949 22 142 9.7 16.1 0.00 0.00 0.00 76 1001.1
20260505051446 22 189 9.7 12.9 0.00 0.00 0.00 76 1001.3
20260505050945 22 137 9.7 14.5 0.00 0.00 0.00 76 1001.4
20260505050443 22 159 9.7 14.5 0.00 0.00 0.00 75 1001.2
20260505041410 22 188 8.0 14.5 0.00 0.00 0.00 74 1001.9
20260505040907 22 199 9.7 12.9 0.00 0.00 0.00 74 1002.0
20260505040405 22 194 8.0 11.3 0.00 0.00 0.00 74 1001.8
20260505035901 22 191 8.0 17.7 0.00 0.00 0.00 73 1002.0
20260505035357 22 137 8.0 12.9 0.00 0.00 0.00 73 1002.0
20260505034855 22 194 11.3 20.9 0.00 0.00 0.00 72 1002.0
20260505034351 23 182 11.3 20.9 0.00 0.00 0.00 72 1001.7
20260505033848 23 186 12.9 20.9 0.00 0.00 0.00 72 1001.8
20260505033345 23 168 6.4 17.7 0.00 0.00 0.00 72 1001.8
20260505032843 23 172 6.4 14.5 0.00 0.00 0.00 72 1001.7
20260505032339 23 177 12.9 17.7 0.00 0.00 0.00 71 1001.7
20260505031837 23 178 9.7 14.5 0.00 0.00 0.00 71 1001.7
20260505031333 23 163 11.3 16.1 0.00 0.00 0.00 71 1001.6
20260505030831 23 177 9.7 16.1 0.00 0.00 0.00 71 1001.6
20260505030326 23 151 9.7 16.1 0.00 0.00 0.00 70 1001.7
20260505025822 23 141 11.3 14.5 0.00 0.00 0.00 70 1001.5
20260505025320 23 153 12.9 14.5 0.00 0.00 0.00 70 1001.5
20260505024818 23 185 12.9 17.7 0.00 0.00 0.00 70 1001.4